Weather History for KBBG - February, 2014

Change the Weather History Date:

Saturday, February 22, 2014

  Actual Average (KHRO) Record (KHRO)
Temperature  
Mean Temperature 52 °F 42 °F  
Max Temperature 68 °F 52 °F 77 °F (1995)
Min Temperature 37 °F 32 °F 2 °F (1912)
Degree Days  
Heating Degree Days 12 23  
Month to date heating degree days 555  
Since 1 July heating degree days 3041  
Cooling Degree Days 0 0  
Month to date cooling degree days 0  
Year to date cooling degree days 0  
Growing Degree Days 2 (Base 50)    
Moisture  
Dew Point 20 °F    
Average Humidity 31    
Maximum Humidity 46    
Minimum Humidity 18    
Precipitation  
Precipitation 0.00 in 0.10 in 1.48 in (1979)
Month to date precipitation 2.02  
Year to date precipitation 4.58  
Snow  
Snow 0.00 in 0.10 in 4.00 in (1966)
Month to date snowfall 2.6  
Since 1 July snowfall 8.6  
Snow Depth -    
Sea Level Pressure  
Sea Level Pressure 29.95 in    
Wind  
Wind Speed 6 mph (SSW)    
Max Wind Speed 16 mph    
Max Gust Speed 21 mph    
Visibility 10 miles    
Events      
T = Trace of Precipitation, MM = Missing Value Source: NWS Daily Summary

Daily Weather History Graph

Daily Weather History Graph

Search for Another Location

Airport or City:

Trip Planner

Search our weather history database for the weather conditions in past years. The results will help you decide how hot, cold, wet, or windy it might be!

Date:

Astronomy

Feb. 22, 2014 Rise Set
Actual Time 6:52 AM CST 6:00 PM CST
Civil Twilight 6:26 AM CST 6:26 PM CST
Nautical Twilight 5:56 AM CST 6:56 PM CST
Astronomical Twilight 5:26 AM CST 7:26 PM CST
Moon 12:44 AM CST (2/22) 11:16 AM CST (2/22)
Length of Visible Light 12h 00m
Length of Day
11h 08m
Waning Gibbous, 50% of the Moon is Illuminated
Feb 22
Waning Gibbous
Mar 1
New
Mar 8
First Quarter
Mar 16
Full
Mar 23
Last Quarter

Hourly Weather History & Observations

Time (CST) Temp. Windchill Dew Point Humidity Pressure Visibility Wind Dir Wind Speed Gust Speed Precip Events Conditions
12:15 AM 48.2 °F - 10.4 °F 22% 30.00 in 10.0 mi SSW 6.9 mph - N/A   Partly Cloudy
12:35 AM 48.2 °F - 10.4 °F 22% 30.00 in 10.0 mi SSW 6.9 mph - N/A   Partly Cloudy
12:55 AM 48.2 °F - 12.2 °F 24% 30.00 in 10.0 mi SSW 6.9 mph - N/A   Clear
1:15 AM 48.2 °F - 12.2 °F 24% 30.00 in 10.0 mi SSW 8.1 mph - N/A   Partly Cloudy
1:35 AM 48.2 °F - 14.0 °F 25% 29.99 in 10.0 mi SSW 6.9 mph - N/A   Scattered Clouds
1:55 AM 48.2 °F - 14.0 °F 25% 29.99 in 10.0 mi SSW 8.1 mph - N/A   Partly Cloudy
2:15 AM 48.2 °F - 14.0 °F 25% 29.99 in 10.0 mi SSW 6.9 mph - N/A   Clear
2:35 AM 48.2 °F - 14.0 °F 25% 29.99 in 10.0 mi SSW 8.1 mph - N/A   Clear
2:55 AM 48.2 °F - 14.0 °F 25% 29.98 in 10.0 mi SSW 10.4 mph - N/A   Clear
3:15 AM 48.2 °F - 14.0 °F 25% 29.98 in 10.0 mi SSW 5.8 mph - N/A   Clear
3:35 AM 48.2 °F - 14.0 °F 25% 29.98 in 10.0 mi SSW 4.6 mph - N/A   Clear
3:55 AM 46.4 °F 45.2 °F 14.0 °F 27% 29.98 in 10.0 mi South 3.5 mph - N/A   Clear
4:15 AM 44.6 °F - 15.8 °F 31% 29.98 in 10.0 mi Calm Calm - N/A   Clear
4:35 AM 41.0 °F - 15.8 °F 36% 29.98 in 10.0 mi Calm Calm - N/A   Clear
4:55 AM 42.8 °F - 14.0 °F 31% 29.99 in 10.0 mi Calm Calm - N/A   Clear
5:15 AM 44.6 °F - 14.0 °F 29% 30.00 in 10.0 mi Calm Calm - N/A   Clear
5:35 AM 41.0 °F - 15.8 °F 36% 30.00 in 10.0 mi Calm Calm - N/A   Clear
5:55 AM 37.4 °F - 15.8 °F 41% 30.00 in 10.0 mi Calm Calm - N/A   Clear
6:15 AM 41.0 °F 38.0 °F 15.8 °F 36% 30.00 in 10.0 mi South 4.6 mph - N/A   Clear
6:35 AM 44.6 °F - 15.8 °F 31% 30.00 in 10.0 mi Calm Calm - N/A   Clear
6:45 AM 42.8 °F 39.3 °F 15.8 °F 34% 30.00 in 10.0 mi South 5.8 mph - N/A   Partly Cloudy
7:50 AM 48.2 °F - 15.8 °F 27% 29.99 in 10.0 mi South 5.8 mph - N/A   Partly Cloudy
8:50 AM 55.4 °F - 17.6 °F 23% 29.99 in 10.0 mi South 9.2 mph - N/A   Scattered Clouds
9:45 AM 59.0 °F - 23.0 °F 25% 29.98 in 10.0 mi South 9.2 mph - N/A   Mostly Cloudy
10:45 AM 64.4 °F - 23.0 °F 21% 29.96 in 10.0 mi South 16.1 mph 20.7 mph N/A   Mostly Cloudy
11:50 AM 64.4 °F - 23.0 °F 21% 29.93 in 10.0 mi South 10.4 mph 17.3 mph N/A   Mostly Cloudy
12:45 PM 66.2 °F - 24.8 °F 21% 29.90 in 10.0 mi SW 11.5 mph 18.4 mph N/A   Mostly Cloudy
1:45 PM 68.0 °F - 23.0 °F 18% 29.86 in 10.0 mi SW 12.7 mph 20.7 mph N/A   Scattered Clouds
2:45 PM 68.0 °F - 23.0 °F 18% 29.84 in 10.0 mi SW 10.4 mph - N/A   Overcast
3:50 PM 66.2 °F - 24.8 °F 21% 29.83 in 10.0 mi SSW 9.2 mph 18.4 mph N/A   Overcast
4:45 PM 64.4 °F - 24.8 °F 22% 29.83 in 10.0 mi SW 9.2 mph 19.6 mph N/A   Mostly Cloudy
5:45 PM 62.6 °F - 26.6 °F 26% 29.84 in 10.0 mi SSW 4.6 mph - N/A   Scattered Clouds
6:45 PM 53.6 °F - 28.4 °F 38% 29.85 in 10.0 mi Calm Calm - N/A   Scattered Clouds
7:45 PM 59.0 °F - 26.6 °F 29% 29.87 in 10.0 mi South 3.5 mph - N/A   Mostly Cloudy
8:45 PM 50.0 °F - 28.4 °F 43% 29.90 in 10.0 mi North 5.8 mph - N/A   Partly Cloudy
9:15 PM 48.2 °F - 28.4 °F 46% 29.91 in 10.0 mi NNW 6.9 mph - N/A   Clear
9:35 PM 48.2 °F - 28.4 °F 46% 29.92 in 10.0 mi North 9.2 mph - N/A   Clear
9:55 PM 48.2 °F - 26.6 °F 43% 29.92 in 10.0 mi North 9.2 mph - N/A   Partly Cloudy
10:15 PM 48.2 °F - 26.6 °F 43% 29.92 in 10.0 mi North 9.2 mph - N/A   Partly Cloudy
10:35 PM 48.2 °F - 26.6 °F 43% 29.93 in 10.0 mi North 6.9 mph - N/A   Partly Cloudy
10:55 PM 48.2 °F - 24.8 °F 40% 29.93 in 10.0 mi North 6.9 mph - N/A   Scattered Clouds
11:15 PM 46.4 °F 43.5 °F 24.8 °F 43% 29.93 in 10.0 mi North 5.8 mph - N/A   Partly Cloudy
11:35 PM 46.4 °F 43.5 °F 24.8 °F 43% 29.93 in 10.0 mi North 5.8 mph - N/A   Scattered Clouds
11:55 PM 46.4 °F 45.2 °F 24.8 °F 43% 29.93 in 10.0 mi NE 3.5 mph - N/A   Mostly Cloudy